This is the latest recevied weather packets stored in our database for station/object KN6CW-3. If no packets are shown the sender has not sent any weather packets the latest 10 day(s).
| Time | Temp. | Humidity | Pressure | Rain* | Wind** | Luminosity | Snow |
|---|---|---|---|---|---|---|---|
| 1777594968 | 6.67° C | 96% | 1010.6 hPa | 1.52 mm | - | 0 W/m² | - |
| 1777594667 | 6.67° C | 96% | 1010.5 hPa | 1.27 mm | - | 0 W/m² | - |
| 1777594367 | 6.67° C | 95% | 1010.6 hPa | 1.52 mm | - | 0 W/m² | - |
| 1777594067 | 6.67° C | 95% | 1010.5 hPa | 1.52 mm | - | 0 W/m² | - |
| 1777593767 | 6.67° C | 95% | 1010.5 hPa | 1.52 mm | - | 0 W/m² | - |
| 1777593466 | 6.67° C | 95% | 1010.4 hPa | 1.78 mm | - | 0 W/m² | - |
| 1777593166 | 6.67° C | 95% | 1010.4 hPa | 1.78 mm | - | 0 W/m² | - |
| 1777592866 | 6.67° C | 95% | 1010.3 hPa | 1.78 mm | - | 0 W/m² | - |
| 1777592565 | 6.67° C | 95% | 1010.2 hPa | 1.78 mm | - | 0 W/m² | - |
| 1777592265 | 6.67° C | 95% | 1010.2 hPa | 1.78 mm | - | 5 W/m² | - |
| 1777591965 | 7.22° C | 95% | 1010.1 hPa | 2.03 mm | - | 7 W/m² | - |
| 1777591665 | 7.22° C | 94% | 1010 hPa | 2.03 mm | - | 7 W/m² | - |
| 1777591366 | 7.22° C | 94% | 1010 hPa | 1.78 mm | - | 9 W/m² | - |
| 1777590764 | 7.22° C | 93% | 1010 hPa | 1.52 mm | - | 11 W/m² | - |
| 1777590463 | 7.22° C | 93% | 1009.9 hPa | 1.52 mm | - | 11 W/m² | - |
| 1777590163 | 7.78° C | 93% | 1009.9 hPa | 1.27 mm | - | 12 W/m² | - |
| 1777589863 | 7.78° C | 93% | 1009.8 hPa | 1.02 mm | - | 16 W/m² | - |
| 1777589563 | 8.33° C | 92% | 1009.8 hPa | 1.02 mm | - | 14 W/m² | - |
| 1777589262 | 8.33° C | 91% | 1009.6 hPa | 0.76 mm | - | 9 W/m² | - |
| 1777589102 | 8.89° C | 90% | 1009.4 hPa | 0.76 mm | - | 14 W/m² | - |
| 1777588962 | 8.89° C | 90% | 1009.4 hPa | 0.76 mm | - | 14 W/m² | - |
| 1777588662 | 8.89° C | 89% | 1009.2 hPa | 0.51 mm | - | 16 W/m² | - |
| 1777588361 | 9.44° C | 87% | 1009.3 hPa | 0.25 mm | - | 14 W/m² | - |
| 1777588061 | 9.44° C | 85% | 1009.2 hPa | 0 mm | - | 12 W/m² | - |
| 1777587761 | 10° C | 82% | 1009.2 hPa | 0 mm | - | 23 W/m² | - |
* Rain latest hour (hover to see other rain measurements)
** Current wind speed in m/s (hover to see current wind gust speed)